Simultaneous Nadir Overpasses (SNOs) Predictions

Prediction of SNOs between GOES-16 and NOAA-20 Satellite Orbit:

Table of predicted SNOs for the next 14.0 days since TLE Epoch: 8/17/2024
Index Date Time (GOES-16) GOES-16 Lat,Lon NOAA-20 Lat,Lon Distance(km) Time Diff (sec)
1 08/17/2024 06:38:01 0.05, -75.21 0.70, -78.02 321.78 80
2 08/18/2024 06:16:35 0.05, -75.21 -0.31, -73.49 195.06 80
3 08/19/2024 18:38:31 -0.04, -75.21 -0.82, -78.81 409.20 80
4 08/20/2024 18:22:25 -0.04, -75.22 0.14, -74.26 108.31 80
5 08/22/2024 06:44:11 0.04, -75.24 1.01, -79.54 489.73 80
6 08/23/2024 06:22:46 0.04, -75.25 -0.02, -75.01 28.16 80
7 08/25/2024 18:25:55 -0.04, -75.28 -0.15, -75.77 56.67 80
8 08/26/2024 18:09:49 -0.03, -75.29 0.89, -71.24 461.50 80
9 08/28/2024 06:31:34 0.02, -75.32 0.30, -76.50 135.73 80
10 08/29/2024 06:10:09 0.02, -75.33 -0.74, -71.98 382.63 80
11 08/30/2024 18:32:03 -0.00, -75.35 -0.43, -77.28 219.29 80
